When you browse on this site, cookies collect data to enhance your experience and personalize the content and advertising you see.
Visit our Privacy Policy to learn more. By continuing to use the site, you agree to this use of cookies and data.
  • In Lithuania
  • List of Countries
  • For 7 days
  • Water Temperature
  • Satellite Maps
  • Weather Map
  • Weather Widgets
  • user-avatar
    Login

    Hourly Weather Itatka

    Today, 21 May, Tuesday

    Time Temperature Precipitation Wind Pressure Humidity
    00:00 +8°C° 0 mm 1 mps 736 mmHg 50%
    01:00 +7°C° 0 mm 1 mps 735 mmHg 52%
    02:00 +7°C° 0 mm 1 mps 735 mmHg 55%
    03:00 +6°C° 0 mm 1 mps 735 mmHg 57%
    04:00 +7°C° 0 mm 1 mps 735 mmHg 56%
    05:00 +8°C° 0 mm 1 mps 734 mmHg 55%
    06:00 +8°C° 0 mm 1 mps 733 mmHg 62%
    07:00 +10°C° 0 mm 1 mps 733 mmHg 58%
    08:00 +10°C° 0 mm 2 mps 733 mmHg 53%
    09:00 +12°C° 0 mm 3 mps 733 mmHg 48%
    10:00 +12°C° 0 mm 3 mps 734 mmHg 45%
    11:00 +13°C° 0 mm 3 mps 734 mmHg 42%
    12:00 +14°C° 0 mm 4 mps 734 mmHg 38%
    13:00 +14°C° 0 mm 4 mps 734 mmHg 39%
    14:00 +14°C° 0 mm 4 mps 734 mmHg 39%
    15:00 +14°C° 0 mm 4 mps 734 mmHg 39%
    16:00 +13°C° 0 mm 3 mps 734 mmHg 41%
    17:00 +14°C° 0 mm 2 mps 734 mmHg 43%
    18:00 +14°C° 0 mm 2 mps 734 mmHg 45%
    19:00 +13°C° 0.2 mm 2 mps 734 mmHg 55%
    20:00 +10°C° 0.2 mm 2 mps 734 mmHg 64%
    21:00 +8°C° 0.2 mm 2 mps 734 mmHg 74%
    22:00 +8°C° 0.3 mm 2 mps 734 mmHg 79%
    23:00 +7°C° 0.3 mm 2 mps 734 mmHg 84%

    Tomorrow, 22 May, Wednesday

    Time Temperature Precipitation Wind Pressure Humidity
    00:00 +7°C° 0.3 mm 2 mps 734 mmHg 89%
    01:00 +7°C° 0.5 mm 2 mps 734 mmHg 90%
    02:00 +7°C° 0.5 mm 3 mps 735 mmHg 91%
    03:00 +5°C° 0.5 mm 3 mps 735 mmHg 93%
    04:00 +7°C° 0.1 mm 3 mps 735 mmHg 91%
    05:00 +7°C° 0.1 mm 3 mps 736 mmHg 89%
    06:00 +7°C° 0.1 mm 3 mps 737 mmHg 88%
    07:00 +8°C° 0.2 mm 3 mps 737 mmHg 80%
    08:00 +9°C° 0.2 mm 3 mps 737 mmHg 72%
    09:00 +11°C° 0.2 mm 3 mps 738 mmHg 64%
    10:00 +11°C° 0.6 mm 3 mps 737 mmHg 62%
    11:00 +12°C° 0.6 mm 4 mps 737 mmHg 61%
    12:00 +12°C° 0.6 mm 4 mps 737 mmHg 60%
    13:00 +12°C° 0.8 mm 4 mps 737 mmHg 58%
    14:00 +13°C° 0.8 mm 4 mps 737 mmHg 56%
    15:00 +13°C° 0.8 mm 4 mps 737 mmHg 54%
    16:00 +13°C° 0.3 mm 4 mps 736 mmHg 54%
    17:00 +12°C° 0.3 mm 3 mps 736 mmHg 53%
    18:00 +13°C° 0.3 mm 2 mps 736 mmHg 52%
    19:00 +12°C° 0.1 mm 2 mps 736 mmHg 58%
    20:00 +9°C° 0.1 mm 2 mps 736 mmHg 64%
    21:00 +7°C° 0.1 mm 2 mps 736 mmHg 70%
    22:00 +7°C° 0.2 mm 2 mps 736 mmHg 75%
    23:00 +7°C° 0.2 mm 1 mps 736 mmHg 80%

    Day after tomorrow, 23 May, Thursday

    Time Temperature Precipitation Wind Pressure Humidity
    00:00 +6°C° 0.2 mm 1 mps 736 mmHg 85%
    01:00 +5°C° 0 mm 1 mps 737 mmHg 87%
    02:00 +5°C° 0 mm 1 mps 737 mmHg 89%
    03:00 +4°C° 0 mm 1 mps 738 mmHg 90%
    04:00 +5°C° 0 mm 1 mps 738 mmHg 85%
    05:00 +5°C° 0 mm 1 mps 739 mmHg 79%
    06:00 +6°C° 0 mm 1 mps 739 mmHg 74%
    07:00 +8°C° 0 mm 1 mps 740 mmHg 64%
    08:00 +8°C° 0 mm 2 mps 740 mmHg 55%
    09:00 +10°C° 0 mm 2 mps 740 mmHg 45%
    10:00 +11°C° 0 mm 3 mps 740 mmHg 41%
    11:00 +12°C° 0 mm 4 mps 741 mmHg 36%
    12:00 +13°C° 0 mm 4 mps 741 mmHg 32%
    13:00 +13°C° 0 mm 4 mps 741 mmHg 30%
    14:00 +14°C° 0 mm 4 mps 741 mmHg 28%
    15:00 +14°C° 0 mm 4 mps 741 mmHg 26%
    16:00 +14°C° 0 mm 4 mps 741 mmHg 27%
    17:00 +13°C° 0 mm 3 mps 741 mmHg 28%
    18:00 +13°C° 0 mm 3 mps 742 mmHg 29%
    19:00 +12°C° 0 mm 2 mps 742 mmHg 35%
    20:00 +10°C° 0 mm 1 mps 742 mmHg 41%
    21:00 +7°C° 0 mm 0 mps 743 mmHg 47%
    22:00 +7°C° 0 mm 1 mps 743 mmHg 47%
    23:00 +7°C° 0 mm 1 mps 743 mmHg 47%

    24 May, Friday

    Time Temperature Precipitation Wind Pressure Humidity
    00:00 +6°C° 0 mm 2 mps 743 mmHg 47%
    01:00 +6°C° 0 mm 2 mps 744 mmHg 50%
    02:00 +6°C° 0 mm 2 mps 744 mmHg 52%
    03:00 +6°C° 0 mm 2 mps 744 mmHg 54%
    04:00 +7°C° 0 mm 3 mps 744 mmHg 56%
    05:00 +7°C° 0 mm 3 mps 744 mmHg 57%
    06:00 +8°C° 0 mm 3 mps 745 mmHg 58%
    07:00 +10°C° 0 mm 4 mps 745 mmHg 53%
    08:00 +10°C° 0 mm 5 mps 745 mmHg 48%
    09:00 +13°C° 0 mm 5 mps 745 mmHg 43%
    10:00 +14°C° 0 mm 6 mps 744 mmHg 41%
    11:00 +14°C° 0 mm 6 mps 744 mmHg 39%
    12:00 +15°C° 0 mm 6 mps 744 mmHg 38%
    13:00 +14°C° 0.1 mm 6 mps 743 mmHg 42%
    14:00 +13°C° 0.1 mm 6 mps 743 mmHg 47%
    15:00 +13°C° 0.1 mm 5 mps 743 mmHg 52%
    16:00 +12°C° 0 mm 5 mps 742 mmHg 55%
    17:00 +11°C° 0 mm 6 mps 742 mmHg 58%
    18:00 +11°C° 0 mm 6 mps 741 mmHg 61%
    19:00 +13°C° 0 mm 6 mps 741 mmHg 58%
    20:00 +13°C° 0 mm 6 mps 741 mmHg 56%
    21:00 +14°C° 0 mm 6 mps 740 mmHg 54%
    22:00 +14°C° 0 mm 6 mps 740 mmHg 55%
    23:00 +14°C° 0 mm 6 mps 740 mmHg 56%

    25 May, Saturday

    Time Temperature Precipitation Wind Pressure Humidity
    00:00 +14°C° 0 mm 6 mps 740 mmHg 58%
    01:00 +13°C° 0 mm 5 mps 740 mmHg 58%
    02:00 +13°C° 0 mm 5 mps 740 mmHg 58%
    03:00 +13°C° 0 mm 5 mps 740 mmHg 58%
    04:00 +13°C° 0 mm 5 mps 740 mmHg 57%
    05:00 +13°C° 0 mm 5 mps 740 mmHg 57%
    06:00 +14°C° 0 mm 5 mps 740 mmHg 57%
    07:00 +15°C° 0.1 mm 6 mps 740 mmHg 54%
    08:00 +17°C° 0.1 mm 6 mps 740 mmHg 52%
    09:00 +19°C° 0.1 mm 6 mps 740 mmHg 49%
    10:00 +20°C° 0 mm 7 mps 740 mmHg 44%
    11:00 +22°C° 0 mm 7 mps 739 mmHg 40%
    12:00 +23°C° 0 mm 7 mps 739 mmHg 36%
    13:00 +23°C° 0 mm 7 mps 739 mmHg 35%
    14:00 +23°C° 0 mm 7 mps 738 mmHg 33%
    15:00 +24°C° 0 mm 7 mps 737 mmHg 32%
    16:00 +23°C° 0 mm 6 mps 737 mmHg 34%
    17:00 +22°C° 0 mm 5 mps 736 mmHg 37%
    18:00 +21°C° 0 mm 4 mps 736 mmHg 40%
    19:00 +20°C° 0 mm 4 mps 736 mmHg 42%
    20:00 +19°C° 0 mm 4 mps 735 mmHg 43%
    21:00 +18°C° 0 mm 4 mps 735 mmHg 45%
    22:00 +17°C° 0 mm 4 mps 734 mmHg 45%
    23:00 +17°C° 0 mm 4 mps 734 mmHg 45%

    26 May, Sunday

    Time Temperature Precipitation Wind Pressure Humidity
    00:00 +17°C° 0 mm 4 mps 733 mmHg 46%
    01:00 +15°C° 0 mm 4 mps 733 mmHg 49%
    02:00 +15°C° 0 mm 5 mps 732 mmHg 53%
    03:00 +15°C° 0 mm 6 mps 732 mmHg 57%
    04:00 +15°C° 0.2 mm 6 mps 732 mmHg 62%
    05:00 +14°C° 0.2 mm 6 mps 733 mmHg 67%
    06:00 +14°C° 0.2 mm 6 mps 733 mmHg 72%
    07:00 +11°C° 0.1 mm 7 mps 734 mmHg 75%
    08:00 +8°C° 0.1 mm 7 mps 735 mmHg 77%
    09:00 +5°C° 0.1 mm 7 mps 737 mmHg 79%
    10:00 +8°C° 0.1 mm 7 mps 738 mmHg 66%
    11:00 +9°C° 0.1 mm 7 mps 739 mmHg 53%
    12:00 +10°C° 0.1 mm 7 mps 741 mmHg 40%
    13:00 +10°C° 0.1 mm 7 mps 741 mmHg 38%
    14:00 +10°C° 0.1 mm 7 mps 742 mmHg 37%
    15:00 +10°C° 0.1 mm 7 mps 742 mmHg 35%
    16:00 +10°C° 0 mm 7 mps 743 mmHg 37%
    17:00 +9°C° 0 mm 6 mps 744 mmHg 40%
    18:00 +9°C° 0 mm 6 mps 745 mmHg 42%
    19:00 +8°C° 0 mm 5 mps 746 mmHg 49%
    20:00 +6°C° 0 mm 4 mps 746 mmHg 56%
    21:00 +5°C° 0 mm 3 mps 747 mmHg 63%
    22:00 +4°C° 0 mm 3 mps 748 mmHg 65%
    23:00 +3°C° 0 mm 3 mps 748 mmHg 66%
    Show more